sat.trackr.live / text

‹ back to catalog

STARLINK-35680

NORAD 66610 · 2025-270Y

PAYLOAD ACTIVE UNKNOWN

§ Identity

Operator
Country
US
Launch date
2025-11-22
Launch site
AFETR
Launch vehicle
Mass (kg)
RCS (m²)

Purposes: comms

External: N2YO · Heavens-Above · Gunter

§ Orbital elements

Epoch: 2026-05-24T20:25:15.525696Z

Period
94.27 min
Inclination
43.0008°
Eccentricity
0.0001493
Mean motion
15.27596239 rev/d
Perigee alt
482.0 km
Apogee alt
484.0 km
Semi-major
6,861.1 km
B*
7.9977e-4
RAAN
346.0683°
Arg perigee
273.6624°
Mean anomaly
86.4057°
Rev number
2,946

§ Raw data

STARLINK-356801 66610U 25270Y   26144.85087414  .00021822  00000+0  79977-3 0  99952 66610  43.0008 346.0683 0001493 273.6624  86.4057 15.27596239 29463

JSON: /api/v1/satellites/66610 · /tle

For live sub-satellite position, see the globe view (requires WebGL).

§ Visibility from observer

Set your observer location to see the next 7 days of passes ≥ 10°. The values pass through the URL so the page stays shareable.

No JS? Fill the form by hand. The geolocation button needs JavaScript.